Weather Roundup
Issued by NWS

Home | Current Version | Previous Version | Text Only | Print | Product List | Glossary On
Versions: 1 2 3 4 5 6 7 8 9 10 11 12 13 14 15 16 17 18 19 20 21 22 23 24 25 26 27 28 29 30 31 32 33 34 35 36 37 38 39 40 41 42 43 44 45 46 47 48 49 50
000
NZUS93 KARX 210410
HRRWXR

CURRENT HOURLY OBSERVATIONS ACROSS
MUCH OF THE UPPER MISSISSIPPI VALLEY
NATIONAL WEATHER SERVICE LA CROSSE WI
1100 PM CDT WED AUG 20 2014


...SOUTHEAST MINNESOTA...


CITY           SKY/WX    TMP DP  RH WIND       PRES   REMARKS
ROCHESTER      MOCLDY    70  66  87 SE3       29.90S
ROCHESTER/MAYO FAIR      73  66  81 E8        29.89S
WINONA         PTCLDY    73  68  83 SE5       29.90S
AUSTIN         PTCLDY    70  66  88 SE3       29.88S
ALBERT LEA     MOCLDY    72  68  88 SE6       29.87S
DODGE CENTER   PTCLDY    70  66  88 CALM      29.89S
PRESTON        PTCLDY    69  69 100 SE5       29.90F
OWATONNA       MOCLDY    73  66  78 SE6       29.88R
FARIBAULT      MOCLDY    73  66  78 NE3       29.88S
$$

...ELSEWHERE IN MINNESOTA...


CITY           SKY/WX    TMP DP  RH WIND       PRES   REMARKS
MINNEAPOLIS    MOCLDY    73  65  75 E13       29.87S
INTNL FALLS    CLEAR     61  58  90 SE5       29.88F
DULUTH         PTCLDY    60  57  89 E9        29.94S
RED WING       MOCLDY    73  64  73 E8        29.87F
REDWOOD FALLS  CLOUDY    74  69  85 SE10      29.81F
MANKATO        MOCLDY    73  66  78 SE8       29.86S
WORTHINGTON    CLOUDY    70  12  11 SE7       29.83S
FAIRMONT       CLOUDY    72  64  78 SE7       29.84S
$$

...SOUTHWEST WISCONSIN...


CITY           SKY/WX    TMP DP  RH WIND       PRES   REMARKS
LA CROSSE      PTCLDY    75  67  76 E9        29.89S
PRAIRIE DU CHI PTCLDY    69  65  89 E5        29.90F
BOSCOBEL       MOCLDY    69  66  90 CALM      29.92R
LONE ROCK      PTCLDY    74  67  78 CALM      29.93R
PLATTEVILLE    MOCLDY    68  66  91 SE5       29.94R
FORT MC COY    MOCLDY    69  64  83 E6        29.93S
CAMP DOUGLAS   MOCLDY    64  63  94 E1        29.94R
VIROQUA        FAIR      69  69 100 NE6       29.94R
WIS DELLS      MOCLDY    69  64  83 E7        29.94R
$$

...ELSEWHERE IN WISCONSIN...


CITY           SKY/WX    TMP DP  RH WIND       PRES   REMARKS
MILWAUKEE      MOCLDY    68  64  87 E5        29.95R
MADISON        PTCLDY    72  67  84 CALM      29.93R
GREEN BAY      CLEAR     62  61  96 S3        29.95R
EAU CLAIRE     PTCLDY    66  64  93 E6        29.91S
BLACK RVR FLS  FAIR      65  65 100 CALM      29.92S
MEDFORD        PTCLDY    59  59 100 E5        29.96S
WAUSAU         CLEAR     62  61  96 CALM      29.95S
WIS RAPIDS     PTCLDY    66  62  87 E3        29.96S
MARSHFIELD     MOCLDY    64  61  90 E5        29.95S
RICE LAKE      MOCLDY    64  61  90 E5        29.95S
$$

...NORTHEAST IOWA...


CITY           SKY/WX    TMP DP  RH WIND       PRES   REMARKS
WATERLOO       MOCLDY    68  66  93 SE7       29.88R
DUBUQUE        PTCLDY    68  66  93 E5        29.94R
DECORAH        CLOUDY    68  68 100 VRB6      29.90S
MASON CITY     MOCLDY    69  68  96 SE5       29.90R
CHARLES CITY   MOCLDY    70  66  88 SE7       29.90R
OELWEIN        MOCLDY    70  68  94 SE7       29.92R
$$

...ELSEWHERE IN IOWA...


CITY           SKY/WX    TMP DP  RH WIND       PRES   REMARKS
DES MOINES     MOCLDY    78  73  84 E5        29.84R
IOWA CITY      CLEAR     69  69 100 SE3       29.91R
FORT DODGE     CLEAR     70  70 100 SE7       29.85S
MARSHALLTOWN   CLEAR     69  68  96 SE6       29.87R
CEDAR RAPIDS   CLEAR     68  68 100 E5        29.90R
$$

...NORTHERN ILLINOIS...


CITY           SKY/WX    TMP DP  RH WIND       PRES   REMARKS
CHICAGO-OHARE  MOCLDY    75  67  76 SW7       29.95R
DUPAGE         CLOUDY    73  67  81 SW5       29.96R
CHICAGO-MIDWAY CLOUDY    78  70  76 SW6       29.95R
MOLINE         CLEAR     70  67  90 E6        29.92R
ROCKFORD       CLOUDY    72  67  84 CALM      29.96R
STERLING       MOCLDY    70  66  88 SE5       29.94F
PEORIA         PTCLDY    75  70  84 S6        29.94S
$$

NOTE: "FAIR" INDICATES FEW OR NO CLOUDS BELOW 12,000 FEET WITH NO
SIGNIFICANT WEATHER AND/OR OBSTRUCTIONS TO VISIBILITY. WIND
SPEEDS ARE IN MILES-PER-HOUR.



USA.gov is the U.S. government's official web portal to all federal, state and local government web resources and services.